Regional Weather Roundup
Issued by NWS

Home | Current Version | Previous Version | Graphics & Text | Print | Product List | Glossary On
Versions: 1 2 3 4 5 6 7 8 9 10 11 12 13 14 15 16 17 18 19 20 21 22 23 24 25 26 27 28 29 30 31 32 33 34 35 36 37 38 39 40 41 42 43 44 45 46 47 48 49 50
000
ASUS44 KMEG 200800
RWRTN
TENNESSEE HOURLY STATE WEATHER ROUNDUP
NATIONAL WEATHER SERVICE MEMPHIS TN
200 AM CST SAT JAN 20 2018

TNZ002-004-019-021-049-052-054-088>092-200900-
WEST TENNESSEE

CITY           SKY/WX    TMP DP  RH WIND       PRES   REMARKS
MEMPHIS INTL   CLOUDY    46  21  37 S8        30.17S
NWS MEMPHIS      N/A     44 N/A N/A MISG        N/A
JACKSON        CLOUDY    44  24  45 S13       30.16S
DYERSBURG      FAIR      39  22  50 S5        30.14R
$$

TNZ008-025-027-028-033-062-065-066-200900-
NORTH MIDDLE TENNESSEE

CITY           SKY/WX    TMP DP  RH WIND       PRES   REMARKS
NASHVILLE      CLOUDY    45  26  47 S10       30.17S
CLARKSVILLE    CLOUDY    44  19  36 SW13G20   30.14R
SMYRNA         CLOUDY    44  25  47 S7        30.20R
CROSSVILLE     CLOUDY    40  25  55 S7        30.19R
$$

TNZ061-075-076-078-094-096-097-200900-
SOUTH MIDDLE TENNESSEE

CITY           SKY/WX    TMP DP  RH WIND       PRES   REMARKS
WINCHESTER     CLOUDY    39  25  56 CALM      30.22S
$$

TNZ017-018-042-046-047-200900-
NORTHEAST TENNESSEE

CITY           SKY/WX    TMP DP  RH WIND       PRES   REMARKS
TRI CITIES     FAIR      20  15  81 CALM      30.23R
$$

TNZ012-013-036-069-073-074-200900-
CENTRAL EAST TENNESSEE

CITY           SKY/WX    TMP DP  RH WIND       PRES   REMARKS
KNOXVILLE      CLOUDY    37  24  59 W8        30.22S WCI  31
OAK RIDGE      CLOUDY    33  24  69 CALM      30.25R
$$

TNZ083-085-099-200900-
SOUTHEAST TENNESSEE

CITY           SKY/WX    TMP DP  RH WIND       PRES   REMARKS
CHATTANOOGA    CLOUDY    32  19  58 CALM      30.26R
$$

SKY/WX REPORTED AS FAIR MEANS FEW OR NO CLOUDS BELOW
12 THOUSAND FEET.




USA.gov is the U.S. government's official web portal to all federal, state and local government web resources and services.